Tracking 17632 objects as of 1-May-2016
HD Live streaming from Space Station
objects crossing your sky now

CZ-2D DEB

Track CZ-2D DEB now!
10-day predictions


NORAD ID: 35272
Int'l Code: 2005-024L
Perigee: 518.2 km
Apogee: 536.5 km
Inclination: 97.6 °
Period: 95.0 minutes
Semi major axis: 6898 km
RCS: 0.0215 m2 (small)
Launch date: July 5, 2005
Source: People's Republic of China (PRC)
Launch site: Jiuquan Satellite Launch Center, China (JSC)

Note: This is SATELLITE DEBRIS
Your satellite tracking list
Your tracking list is empty





NASA's NSSDC Master Catalog

Two Line Element Set (TLE):
1 35272U 05024L   16121.35745522  .00001227  00000-0  68811-4 0  9994
2 35272  97.6107 157.7976 0013306 196.7257 227.9067 15.15246982575387
Source of the keplerian elements: AFSPC

N2YO: 494